Location: *
(44.9308°N, 123.0197°W)
Time: 04:36:35
(UTC+00:00)

Cosmos 2263 Rocket - Pass Details

Date: 09 April 2020
Orbit: 823 x 849 km, 71.0° (Epoch: 24 May)

Event Time Altitude Azimuth Distance (km) Brightness Sun altitude
Exits shadow 11:59:34 - 185° (S) 2,614 4.4 -16.9°
Reaches altitude 10° 12:00:00 10° 183° (S) 2,453 4.3 -16.8°
Maximum altitude 12:05:26 52° 109° (ESE) 1,048 2.9 -16.0°
Drops below altitude 10° 12:10:56 10° 35° (NE) 2,481 5.6 -15.1°
Sets 12:13:27 0° 30° (NNE) 3,422 6.4 -14.7°
